Wind_Speed
16 20 26 31 31 27 25 25 27 28 25 22 20 19 21 22 24 23 22 21 18 21 26 27 28 31 33 32 28 25 25 26 22 18 22 28 31 30 27 21 15 13 13 12 12 12 11 11 11 10 10 10 9 8 6 4 6 8 9 10 11 12 12 11 12 14 15 16 15 16 16 15 16 16 16 15 13 12 10 9 8 7 6 6 8 10
14 21 28 29 26 23 22 22 21 22 25 25 21 20 22 22 25 25 25 25 18 17 24 26 30 34 33 32 29 26 26 26 24 20 20 26 32 32 26 19 16 16 16 14 13 12 11 11 10 8 9 12 12 12 9 6 5 7 11 12 12 11 11 12 14 15 17 15 12 14 15 15 18 18 17 15 13 12 10 10 9 9 9 9 9 9
19 26 26 21 18 18 18 19 19 18 22 25 24 23 25 23 24 26 27 25 19 20 25 22 27 35 33 29 28 26 28 26 24 23 23 27 35 33 24 19 20 20 17 14 13 11 11 10 10 9 10 11 11 11 9 7 8 10 13 14 13 12 12 14 17 18 18 15 14 15 16 18 21 19 17 15 14 13 11 11 11 11 11 10 9 7
22 19 13 11 14 16 16 17 18 19 21 23 24 26 27 25 24 26 25 21 19 22 25 20 24 32 31 27 27 30 30 26 22 22 22 25 32 30 23 21 21 20 16 14 13 12 11 10 10 8 8 8 9 10 10 9 10 12 14 15 15 14 15 16 18 19 18 16 17 17 17 20 20 17 16 16 15 14 13 12 12 12 11 9 8 6
19 5 2 8 12 15 16 17 19 20 22 22 23 25 26 25 21 22 22 22 22 19 17 18 22 26 30 28 29 31 28 22 20 22 22 26 31 27 23 23 20 16 14 14 13 11 10 9 9 7 7 8 9 10 10 11 12 14 15 15 15 16 17 17 17 18 19 17 17 18 19 21 20 17 16 16 16 15 15 14 13 11 9 8 7 6
19 7 3 13 14 15 17 17 19 20 22 23 23 23 22 20 17 19 20 21 23 17 11 10 11 15 26 30 27 24 21 19 21 24 27 30 30 27 25 23 19 17 15 13 12 10 9 9 9 8 7 9 11 12 12 13 14 15 14 15 16 17 17 17 16 17 17 16 15 16 18 19 19 19 18 16 16 15 15 14 12 10 9 8 7 6
19 10 11 16 15 17 19 19 18 18 23 25 24 21 20 19 19 21 20 17 18 16 12 7 5 7 16 21 17 14 13 17 21 23 27 29 28 26 22 20 19 17 14 13 12 10 9 9 8 7 8 10 12 14 14 14 15 15 15 16 17 18 18 17 16 16 16 15 15 16 16 16 17 18 18 17 17 15 14 13 12 10 9 8 7 6
16 11 13 17 18 19 22 22 18 17 22 24 21 19 20 21 22 22 20 17 19 19 16 11 4 4 8 8 5 7 7 12 19 22 25 26 24 23 20 18 15 12 11 12 12 10 11 9 7 6 9 12 15 15 13 14 15 16 16 17 18 19 19 18 18 18 17 17 18 18 16 16 16 16 16 15 15 15 14 13 12 11 9 7 6 5
13 12 11 13 19 22 22 21 18 19 23 22 20 19 18 17 17 19 18 18 19 16 13 9 4 2 5 6 3 9 8 12 21 25 26 25 23 21 18 13 10 9 10 11 9 9 10 9 7 9 11 13 15 14 11 12 14 15 17 18 19 20 19 19 20 20 19 20 20 19 18 17 17 16 14 14 14 14 14 12 11 9 8 7 6 5
18 18 14 15 21 23 19 13 14 21 22 20 19 18 16 11 10 12 14 18 17 11 10 7 5 3 1 6 5 9 10 14 21 26 27 24 22 18 14 11 11 11 11 9 8 8 8 8 11 14 14 13 13 12 11 11 13 15 16 17 19 20 19 20 21 21 20 20 18 17 18 17 16 16 15 14 14 13 12 11 9 8 7 6 6 5
23 20 19 21 22 20 17 10 11 16 17 17 15 14 15 13 13 14 16 17 11 7 11 10 8 5 1 3 6 8 10 13 19 25 25 21 18 16 13 13 13 11 10 9 10 9 8 12 17 18 15 13 13 13 12 12 12 14 15 17 19 19 19 20 21 20 19 18 17 16 17 16 15 14 14 14 13 12 11 10 9 7 6 5 4 5
26 23 22 22 18 16 16 14 12 14 16 17 15 15 15 11 12 13 14 12 4 3 11 13 11 8 5 5 6 7 9 11 14 21 26 25 21 19 16 14 11 9 9 8 8 9 13 17 19 17 15 14 13 14 15 14 13 13 15 18 19 20 19 19 20 19 19 19 16 16 17 15 14 13 12 13 12 12 11 10 9 6 4 3 3 4
27 24 21 19 16 15 18 17 13 14 17 17 17 18 13 5 3 5 5 4 3 4 8 11 11 8 7 9 8 5 7 7 6 14 26 27 22 19 15 11 9 7 7 7 6 9 14 17 17 16 15 14 13 15 16 14 13 13 15 18 20 20 19 19 20 19 20 19 16 16 17 15 14 14 13 14 13 12 11 10 8 6 4 2 3 4
21 20 19 19 17 15 18 17 13 12 15 17 19 19 12 3 2 1 3 1 2 4 6 9 10 6 5 7 7 6 5 3 3 12 21 20 16 15 12 11 9 7 8 8 5 7 15 18 17 16 16 14 13 13 15 15 14 14 16 18 19 19 19 20 20 20 20 18 16 17 17 15 15 15 15 15 15 13 12 11 9 7 4 2 4 3
13 13 16 18 17 17 18 17 15 14 15 14 14 17 18 11 4 2 3 1 2 3 4 8 6 4 6 6 4 4 3 7 14 18 17 15 15 14 12 12 9 10 12 9 8 11 18 21 18 16 16 14 12 12 13 16 17 17 18 18 18 18 19 20 20 21 21 19 18 19 17 15 15 16 16 17 16 15 13 12 9 6 2 2 3 1
13 14 16 15 15 18 19 17 16 17 17 16 13 15 20 19 11 5 3 3 1 2 1 3 3 4 9 8 5 6 7 15 21 20 17 16 17 17 16 14 10 11 12 9 11 16 21 22 19 17 16 13 12 11 12 15 18 19 19 18 17 17 18 19 20 21 22 21 21 20 17 16 15 15 16 17 17 16 14 11 8 4 1 2 3 3
11 14 15 13 13 18 21 19 17 17 15 13 12 13 17 18 14 9 4 3 2 1 1 3 7 10 12 8 7 9 11 18 21 20 19 19 20 20 17 14 12 12 10 9 12 17 21 23 21 18 16 13 12 12 12 13 16 17 18 18 18 19 20 20 21 22 23 22 23 22 19 18 16 15 16 17 17 16 14 11 7 4 1 2 3 5
15 17 16 13 13 15 21 22 18 17 17 14 10 9 11 12 12 8 3 3 3 0 2 2 9 11 8 6 10 13 15 19 20 19 18 17 18 18 14 13 12 13 12 12 14 18 23 25 22 18 14 12 13 13 12 12 13 14 15 18 21 22 22 22 22 23 24 24 24 23 21 20 18 16 16 18 18 16 14 11 8 5 3 4 5 6
16 17 17 14 12 10 13 20 19 17 19 18 11 8 8 8 8 7 4 3 3 2 2 1 7 8 5 6 13 15 15 17 19 19 17 17 18 17 15 14 14 16 16 14 16 20 25 26 23 19 16 14 16 16 15 15 14 11 13 16 21 24 24 24 24 25 25 26 26 25 23 21 19 18 18 19 19 17 14 11 9 7 6 6 7 7
15 14 15 12 7 5 6 9 13 16 18 18 15 16 15 8 5 4 5 6 7 4 1 1 4 5 5 9 15 15 16 18 19 18 16 17 18 16 15 15 17 18 16 14 16 21 26 28 26 23 20 19 19 20 19 18 18 15 15 18 21 24 27 27 27 27 27 28 28 27 25 23 21 19 19 20 20 18 15 12 10 9 8 8 8 9
13 13 17 16 9 7 8 4 2 7 12 17 19 20 18 14 9 5 4 7 7 5 4 3 3 3 5 10 15 15 19 20 19 17 17 17 16 16 16 18 20 20 18 17 19 22 26 28 27 26 25 23 20 20 20 20 21 21 20 21 22 25 29 30 30 30 31 31 30 28 27 25 24 22 22 22 23 21 17 15 14 12 11 10 9 9
9 9 15 19 10 3 9 8 4 1 1 9 15 13 12 14 16 9 4 7 7 5 6 5 3 2 3 8 13 13 17 18 15 15 17 17 15 16 17 17 16 17 18 20 21 22 24 25 27 27 25 22 20 20 20 20 22 23 23 23 25 27 30 32 32 32 32 33 30 27 27 28 27 26 25 25 26 23 18 17 17 15 13 11 10 10
10 7 12 15 5 7 11 10 14 9 2 4 8 9 7 9 13 9 4 9 10 7 7 6 4 3 3 4 7 9 13 15 13 13 15 15 16 16 16 15 13 13 15 17 19 20 19 19 21 20 18 19 19 20 20 21 23 24 25 28 28 29 30 30 31 32 33 33 31 28 28 30 29 29 28 28 28 24 20 20 19 16 14 12 11 10
11 7 10 11 6 9 10 8 15 18 10 2 6 8 6 5 8 5 3 11 14 10 8 5 3 4 5 4 4 8 14 16 14 13 13 15 16 16 17 16 14 12 13 15 17 16 12 10 10 10 10 13 15 16 17 19 20 23 26 28 28 28 29 30 32 35 35 34 32 30 30 31 31 31 30 29 28 25 22 20 18 16 16 14 13 13
14 9 8 6 3 7 9 7 9 15 16 10 1 6 5 5 6 4 5 12 11 9 10 6 3 6 9 8 7 10 14 16 16 14 14 15 15 16 16 15 13 11 10 12 14 13 11 7 7 8 9 10 12 12 12 14 16 19 21 23 24 26 29 30 32 35 35 33 31 30 31 32 33 32 30 29 28 25 21 19 19 18 18 16 15 15
15 13 10 5 3 3 4 3 5 11 17 13 6 3 1 5 6 5 9 12 9 8 9 7 9 12 14 13 13 13 12 13 15 15 15 15 14 14 14 13 12 10 8 10 11 12 11 9 7 7 7 7 8 9 10 11 13 15 16 17 20 23 25 25 26 29 31 31 29 27 26 27 29 29 28 27 27 26 23 23 22 19 18 17 16 16
14 16 15 9 6 3 3 5 3 7 15 15 10 10 7 2 6 5 8 9 9 10 8 8 13 16 16 16 16 16 14 13 15 15 15 15 16 16 15 13 12 10 9 11 12 12 13 11 8 6 6 5 5 5 7 10 13 14 14 15 17 18 18 17 17 18 20 23 22 18 17 18 20 22 23 25 28 29 29 28 26 21 18 19 18 17
13 19 18 14 10 3 4 1 2 4 9 13 14 14 13 8 1 5 4 5 9 9 7 11 15 16 18 18 17 16 16 15 14 13 13 16 17 17 16 15 14 12 11 12 12 13 14 13 11 9 8 8 7 7 8 11 13 14 14 15 15 15 14 12 11 10 12 13 11 10 11 13 16 17 19 23 26 28 28 26 24 20 19 19 18 18
9 15 19 19 14 6 2 6 6 3 3 5 6 9 12 15 12 5 2 3 7 7 7 17 20 18 19 20 17 16 17 17 16 14 15 18 17 15 15 15 14 13 13 14 14 15 15 14 13 11 11 11 10 9 10 11 11 11 13 14 14 13 12 11 10 10 11 11 10 10 11 12 14 16 18 20 23 24 22 18 18 19 19 19 19 19
5 9 15 19 14 6 5 8 6 6 4 8 8 5 3 8 12 10 6 5 6 7 9 19 23 21 21 20 18 18 18 19 19 18 18 18 17 16 16 16 15 14 15 16 16 17 17 15 12 11 11 12 11 10 10 10 10 10 11 13 14 14 14 13 13 13 12 11 11 11 11 11 13 15 17 18 20 21 20 19 19 19 19 18 18 19
5 6 10 12 9 6 6 10 10 9 10 12 15 13 9 5 5 5 4 6 9 9 13 19 22 22 21 19 18 17 18 19 19 20 21 21 18 18 19 19 18 17 18 18 17 18 19 18 15 13 12 12 12 12 11 11 11 11 11 11 12 13 14 13 14 14 12 10 10 11 12 12 13 15 15 17 19 19 19 21 20 19 18 17 18 18
4 5 8 10 11 10 12 17 19 16 14 15 17 15 9 5 4 5 5 6 9 11 16 20 22 21 20 18 17 17 18 20 21 22 23 22 20 19 21 22 21 20 21 21 20 20 21 21 19 16 15 14 14 14 13 12 12 11 10 11 11 12 13 13 13 14 12 11 10 10 12 12 13 14 15 16 18 17 18 20 20 19 18 17 17 17
1 4 7 7 9 10 12 13 13 14 12 9 10 10 7 4 5 7 9 9 7 10 16 21 22 21 19 17 18 19 19 19 22 23 23 22 21 22 22 22 23 23 22 22 22 22 22 23 21 19 18 18 16 14 13 13 13 12 12 13 13 12 12 13 14 14 14 13 13 13 12 13 14 15 16 18 18 17 17 18 18 19 19 18 18 17
2 4 4 5 8 9 7 4 3 5 6 5 7 8 7 5 5 6 9 9 7 8 13 18 19 18 17 16 16 16 15 16 18 18 19 21 23 24 23 22 22 24 24 24 24 23 22 22 21 20 21 20 19 17 15 14 14 13 13 13 14 14 14 15 16 16 15 14 14 14 14 14 15 17 18 18 17 16 16 16 17 19 19 20 20 19
4 6 7 7 10 10 8 5 2 2 6 12 15 13 11 9 6 7 10 11 10 9 11 14 16 15 14 13 11 11 11 13 13 12 13 16 19 22 23 23 23 24 25 26 25 24 24 23 21 21 21 21 21 20 18 16 15 14 13 13 14 15 15 16 16 16 15 14 14 14 15 15 16 18 19 19 18 17 17 16 16 18 19 19 20 19
4 7 10 12 12 11 10 7 3 6 14 21 21 17 15 13 9 11 15 13 9 8 10 14 18 15 10 9 9 10 10 11 11 10 9 11 13 14 18 21 24 24 25 27 28 27 25 24 23 22 22 22 21 20 19 18 18 18 16 13 13 13 14 14 14 14 15 14 15 15 15 15 16 17 18 19 19 18 18 17 16 16 17 17 17 17
3 6 10 11 8 8 10 11 11 14 16 16 18 18 17 16 13 12 14 15 11 8 7 10 15 14 10 9 8 8 7 7 9 10 9 9 9 10 11 14 18 21 21 22 24 25 27 29 28 26 25 25 22 20 20 19 18 19 17 14 12 11 10 10 11 12 14 15 16 16 16 17 18 19 18 19 18 18 17 17 17 17 17 16 16 16
5 6 8 7 5 9 13 14 10 8 7 11 16 15 13 13 12 11 12 14 11 8 7 7 8 8 7 6 6 6 6 5 6 8 9 9 10 11 10 11 13 14 12 9 9 13 19 24 26 25 25 24 22 21 20 19 19 19 18 17 15 13 12 11 10 11 12 13 14 14 15 17 19 18 19 20 21 21 20 21 21 20 19 18 17 16
6 6 8 7 7 11 13 10 4 2 6 13 16 13 12 12 12 11 11 10 9 9 8 7 7 6 6 5 5 5 4 4 5 7 9 10 10 11 12 13 14 11 6 5 5 6 8 11 12 13 16 17 15 16 17 16 15 15 16 17 17 15 14 14 13 13 13 13 13 13 14 16 17 18 19 21 22 23 22 22 22 21 20 19 18 18
7 5 6 7 8 10 10 8 5 3 8 14 15 14 12 12 14 14 9 8 13 13 9 8 8 7 8 8 8 8 7 6 7 7 8 9 9 9 10 12 12 9 6 5 3 4 6 9 8 7 5 6 7 8 8 9 10 11 12 13 14 13 13 13 13 13 13 13 14 14 15 16 17 18 18 19 21 21 20 20 19 20 20 20 19 20
7 5 6 7 7 7 8 9 7 6 10 14 14 14 13 12 15 15 11 12 17 14 11 11 10 11 12 12 11 11 10 9 8 8 9 9 8 7 7 8 8 7 6 5 4 5 5 5 6 7 6 7 8 10 9 9 10 12 13 14 14 14 14 14 12 11 12 12 12 13 13 14 16 17 18 19 19 20 20 20 20 20 20 19 20 21
6 6 7 8 8 8 10 11 9 7 9 11 11 15 18 15 12 15 16 16 18 16 14 14 13 13 13 12 10 10 9 8 6 7 9 10 9 8 7 7 7 6 5 5 5 6 6 6 6 7 7 8 8 9 9 10 10 11 13 15 17 18 19 18 17 16 16 16 16 16 16 17 17 18 19 20 21 21 21 21 20 20 20 21 22 22
7 7 8 9 9 9 10 10 6 4 7 9 9 14 19 16 12 16 20 19 17 17 17 16 14 12 10 9 9 7 5 4 4 6 8 9 8 8 7 6 6 6 6 6 5 5 6 6 6 6 7 8 8 9 10 10 10 10 12 14 16 18 20 21 21 21 21 21 21 21 21 22 22 22 22 22 22 23 23 23 23 23 24 25 25 24
7 6 7 8 8 7 6 7 4 4 7 8 8 12 18 16 13 17 21 19 18 17 16 16 14 11 8 7 6 5 3 1 2 3 6 7 7 7 6 6 7 7 7 8 8 8 8 8 8 8 9 9 10 10 11 12 12 13 14 15 17 18 19 20 21 22 23 24 25 25 26 26 26 26 26 26 25 26 27 28 28 28 28 28 28 28
7 6 5 5 5 6 6 9 8 6 5 6 7 11 15 14 13 15 17 18 19 18 16 14 12 10 8 7 6 5 4 5 6 6 7 7 8 7 7 8 8 9 9 9 9 10 10 10 11 12 12 13 13 13 14 15 15 16 16 17 18 19 20 21 21 22 23 24 25 27 28 30 30 32 33 33 32 32 32 31 30 29 30 31 31 31
9 8 3 3 7 9 10 11 9 6 4 4 6 9 12 12 13 14 15 16 18 19 18 15 14 14 12 9 8 8 8 9 10 11 11 11 11 10 9 9 10 10 11 11 11 11 11 11 12 13 13 14 15 15 16 17 18 19 20 20 21 22 23 24 25 25 26 26 27 28 29 31 32 33 34 34 34 33 33 32 32 32 33 35 36 35
10 9 5 4 8 8 10 11 8 6 6 6 7 9 10 12 12 11 11 13 15 17 16 15 14 13 11 9 9 9 9 11 12 13 13 13 12 11 10 11 11 12 13 13 13 12 11 12 11 12 13 13 14 15 16 17 18 20 21 22 23 24 25 26 27 28 29 29 30 32 33 34 34 34 34 34 33 33 33 34 34 35 36 37 38 39
7 5 4 5 6 7 11 11 8 8 9 8 7 8 10 11 11 10 10 11 11 12 13 12 11 9 8 8 8 10 11 12 14 14 14 13 12 11 12 14 15 15 14 14 13 13 13 13 13 14 15 15 16 17 18 18 19 20 22 23 23 25 26 27 28 29 30 31 32 33 35 36 37 38 38 38 38 38 38 38 38 39 39 39 40 40
4 2 3 4 5 9 13 12 10 10 10 8 7 7 8 8 9 9 10 10 10 10 10 10 11 11 11 10 11 12 13 14 15 16 16 15 13 13 15 16 16 14 13 13 14 14 15 16 16 16 16 17 17 17 18 18 19 19 20 20 21 22 23 24 25 26 27 28 30 31 33 35 36 38 39 40 41 42 43 43 43 43 43 43 43 44
1 0 1 2 4 8 9 9 8 9 10 11 10 8 7 7 8 9 9 9 10 10 10 11 12 14 15 15 14 14 15 17 18 17 17 15 13 13 15 15 15 15 14 15 15 16 17 17 17 16 15 15 15 15 15 16 16 16 17 17 17 18 19 20 21 21 22 23 24 25 27 29 30 32 33 35 37 39 41 42 44 45 45 45 45 46
1 1 1 1 2 6 7 8 7 6 7 8 9 8 8 9 10 11 11 12 12 12 13 14 14 15 15 15 14 13 13 15 17 17 16 14 14 15 17 17 16 16 16 16 16 16 17 16 15 15 14 13 13 13 13 13 14 14 15 16 16 16 17 17 18 18 19 20 21 21 23 24 26 27 28 30 32 34 36 37 39 41 43 44 44 45
Wind_Direction
220 227 227 227 228 227 227 227 230 236 236 236 239 247 259 268 271 271 269 270 281 285 274 262 254 247 243 244 243 240 240 243 245 235 227 226 222 218 215 216 225 238 244 249 259 264 274 285 293 300 289 270 251 246 243 205 198 213 213 222 226 214 204 194 187 182 174 174 178 177 176 174 167 158 155 160 161 159 160 163 158 150 157 174 189 199
226 233 231 232 235 235 235 234 234 236 235 237 240 248 258 266 272 272 273 278 283 289 283 271 259 251 245 246 244 241 239 238 240 239 230 224 218 212 211 218 230 234 232 234 244 258 275 283 284 287 282 274 257 243 231 199 197 213 210 214 221 220 209 189 180 176 171 173 173 163 157 157 162 158 153 160 165 162 159 150 140 137 141 147 158 173
238 243 238 235 239 239 238 233 230 230 231 234 239 249 258 263 275 277 276 277 270 279 292 280 258 249 243 243 245 243 241 238 241 248 250 234 216 207 210 224 231 227 223 229 241 259 272 275 281 286 284 272 242 216 202 195 207 211 208 211 213 211 203 187 177 172 172 176 170 160 154 154 159 158 155 164 168 164 156 145 140 143 143 138 137 144
240 247 238 226 234 239 234 223 222 228 230 234 240 251 259 263 275 280 276 270 264 283 295 273 250 247 242 240 240 239 240 240 236 240 251 239 216 208 215 224 226 224 227 236 247 259 267 274 288 296 289 263 219 197 196 201 208 209 207 209 207 199 195 190 181 175 177 180 175 170 165 160 159 159 159 162 163 161 155 150 149 146 138 128 123 124
234 195 133 233 237 241 235 221 221 232 238 239 244 251 260 263 267 275 277 277 283 303 301 259 242 241 237 232 229 233 239 237 223 215 216 212 207 209 213 214 217 225 233 242 251 259 263 277 295 298 275 241 209 200 206 205 206 208 204 201 197 190 190 193 189 183 182 182 180 176 171 164 160 159 160 159 158 159 156 153 150 144 133 124 120 120
226 164 221 250 246 246 241 229 223 233 244 247 251 252 255 258 259 267 278 291 297 315 323 255 218 214 221 220 221 226 230 222 210 206 200 196 201 206 208 210 215 220 226 236 244 251 259 275 289 283 250 222 206 205 208 203 204 206 200 195 191 186 189 194 193 188 184 184 181 176 171 164 158 157 159 159 159 160 157 151 145 137 127 118 113 112
227 205 241 250 250 249 247 242 227 229 245 252 256 253 252 260 267 270 277 296 298 302 316 282 195 169 195 202 209 211 216 216 210 208 204 200 201 204 207 213 217 218 224 232 235 243 256 266 276 266 232 209 200 202 203 197 200 202 197 194 188 184 190 196 193 188 187 184 179 177 175 165 159 161 165 165 163 160 156 149 141 131 121 114 107 101
227 225 239 246 251 249 250 248 227 218 237 249 256 254 260 268 270 272 273 285 293 295 306 295 226 144 147 155 208 229 226 218 210 211 208 203 202 202 204 207 211 219 230 240 244 250 255 256 259 242 216 203 198 198 200 196 196 197 195 193 189 187 192 195 191 188 187 184 179 177 177 172 167 168 171 171 165 159 155 149 140 131 123 114 103 91
234 245 249 252 250 248 251 249 233 227 235 245 252 256 269 275 267 269 268 277 294 295 295 289 225 163 112 116 271 273 252 211 207 210 206 201 199 197 195 196 206 230 242 244 245 250 255 254 241 216 207 206 202 197 198 197 195 195 194 193 190 189 192 191 187 186 186 184 182 179 176 176 174 171 172 171 166 161 157 151 142 132 119 104 91 79
244 249 262 270 261 255 253 250 238 233 235 244 254 259 270 276 259 262 267 274 286 275 260 258 219 224 119 144 200 256 243 215 207 204 199 198 196 192 193 202 218 237 246 238 228 236 240 226 212 205 203 205 202 197 195 191 191 195 195 192 190 190 190 188 186 188 188 188 188 181 178 179 179 175 172 171 169 164 160 155 147 136 121 105 89 76
247 251 262 267 266 260 250 247 234 228 241 256 261 262 266 267 255 253 261 264 269 249 234 223 196 202 234 177 189 210 228 230 214 201 193 190 189 189 197 211 224 231 227 223 229 227 199 193 203 205 200 196 193 191 187 181 184 194 195 192 191 192 191 190 192 195 198 201 198 187 181 181 181 179 176 175 173 170 166 163 155 145 135 119 93 71
251 256 257 256 261 256 241 243 243 234 247 257 257 257 258 262 253 250 254 246 231 229 221 207 198 198 204 217 208 198 213 226 227 219 210 199 193 193 197 208 215 204 200 214 224 208 190 192 200 200 196 191 187 186 184 178 178 187 193 193 194 197 198 197 199 205 211 214 208 192 184 181 179 180 180 179 178 177 177 172 163 156 147 124 73 48
254 254 252 252 253 243 233 237 240 234 237 244 251 254 252 259 256 248 247 218 193 212 198 196 211 211 203 219 231 245 235 230 264 244 218 203 194 195 200 207 200 192 209 214 198 189 194 199 199 195 195 193 188 187 185 181 177 179 189 196 199 202 203 203 205 210 215 217 211 197 188 182 180 181 183 184 185 186 185 179 172 167 155 111 30 19
257 254 253 253 243 228 225 227 228 230 235 243 251 248 235 197 88 262 260 279 228 214 196 200 210 205 192 208 223 248 261 248 238 222 210 203 203 207 212 209 207 230 236 224 215 193 193 201 200 196 197 196 192 189 187 185 182 179 187 195 200 203 204 206 208 213 216 216 211 202 192 185 186 189 189 191 192 193 192 189 187 181 167 83 27 18
256 257 251 246 239 233 232 231 234 240 238 245 258 250 234 216 183 211 222 190 207 213 200 197 197 194 180 168 180 200 185 171 186 196 199 207 219 221 221 213 218 244 238 237 248 209 196 205 207 200 200 199 194 193 192 190 186 184 189 194 197 200 203 206 210 215 217 216 210 205 197 188 191 196 196 196 194 195 200 202 198 192 187 43 47 77
251 257 251 243 243 244 243 241 242 242 239 247 260 246 231 225 220 216 182 149 176 347 34 155 119 151 165 155 152 159 157 168 182 192 196 204 215 221 226 223 228 242 237 241 233 204 198 209 212 207 205 199 194 197 198 195 190 190 193 193 194 198 202 208 216 219 219 217 212 209 202 191 193 199 200 201 199 199 203 203 195 183 156 52 87 149
249 254 252 249 247 244 245 244 240 236 231 233 241 229 220 222 223 219 184 126 98 351 312 108 105 135 149 151 153 154 163 173 181 190 191 196 203 208 219 227 235 236 224 220 218 206 202 208 213 215 210 200 196 199 199 197 197 198 198 196 196 200 203 207 216 221 222 220 216 213 207 200 202 206 206 205 204 203 202 199 196 184 131 108 132 159
254 258 255 251 256 255 248 243 240 238 230 222 221 218 212 213 216 209 170 94 80 232 260 140 137 144 142 151 159 160 170 174 177 181 186 197 205 211 223 232 233 220 198 195 204 205 203 204 212 218 212 202 196 195 193 192 198 207 210 205 203 205 207 209 215 220 222 220 218 216 211 209 213 212 207 205 205 206 203 198 193 179 152 142 145 154
245 258 262 255 265 274 245 232 232 234 233 228 223 232 229 207 198 192 158 133 141 179 301 138 145 133 108 158 169 173 181 183 184 186 194 208 217 225 229 223 214 201 190 191 197 200 201 202 207 210 209 209 200 191 186 185 190 209 230 228 217 211 211 212 215 220 223 221 220 218 213 214 218 214 207 206 206 205 201 194 182 166 157 153 146 148
233 248 263 259 263 264 214 212 223 227 226 220 218 234 238 218 190 192 180 173 166 167 219 206 157 121 110 167 180 188 195 195 196 199 203 208 215 221 220 214 206 195 191 196 197 195 197 201 204 204 210 216 207 194 188 186 189 200 224 238 233 220 214 216 217 219 223 223 221 219 217 217 219 218 214 209 205 203 198 188 175 164 158 152 145 147
235 235 248 251 263 243 210 157 151 217 215 210 213 220 223 221 219 217 193 181 163 151 165 172 183 136 128 179 194 204 206 198 195 200 200 204 212 214 213 212 203 192 189 193 195 198 198 200 203 205 211 214 207 196 191 191 195 201 213 231 240 231 220 218 219 220 224 225 221 215 214 219 222 222 218 210 204 200 190 177 172 166 159 154 147 146
247 233 234 243 266 226 186 183 198 252 148 196 204 200 199 210 208 195 184 188 169 154 168 166 164 102 108 188 204 218 215 205 203 206 199 199 207 209 212 217 209 199 196 194 197 206 203 199 203 206 207 205 202 199 196 197 203 208 215 225 237 238 228 221 221 223 227 231 229 219 213 218 220 218 216 210 204 196 180 174 176 170 163 160 152 150
260 241 222 229 235 112 131 170 210 230 5 109 160 167 176 196 197 191 185 181 167 152 157 142 120 109 103 185 212 218 209 204 212 215 203 202 208 209 212 218 218 219 218 212 211 214 210 202 203 204 197 197 203 205 205 206 209 214 220 223 228 234 234 228 226 227 229 230 231 224 217 216 217 216 214 209 205 195 180 179 182 174 170 171 164 162
246 233 220 219 195 152 143 162 206 219 234 240 108 128 146 175 194 205 200 184 175 166 165 134 96 145 140 150 212 209 196 191 191 193 195 200 206 208 210 210 210 212 213 213 213 215 211 198 195 197 196 203 209 209 212 216 216 221 226 228 228 231 235 233 227 228 231 229 226 224 221 218 218 216 210 204 201 194 184 186 186 179 181 183 180 179
230 214 207 211 182 172 178 188 207 210 221 240 169 102 95 114 158 169 184 187 180 184 190 165 124 159 157 162 185 195 195 185 173 174 188 198 203 209 211 206 203 202 192 189 193 193 187 176 182 199 208 217 219 217 219 218 219 224 228 231 232 231 235 238 232 230 232 232 229 227 225 222 219 216 209 202 197 193 189 183 181 187 192 190 188 189
230 217 201 189 132 146 187 228 228 205 212 227 235 229 113 87 103 145 179 179 168 186 194 156 143 155 158 171 182 187 195 182 169 178 191 198 201 202 206 207 201 195 184 181 182 176 175 179 194 210 218 230 235 232 226 220 221 226 226 225 225 224 228 233 232 231 232 234 234 230 229 229 224 220 216 207 200 202 200 189 189 203 204 195 195 198
226 211 201 193 161 125 350 335 303 217 213 214 218 236 241 100 78 115 175 180 164 168 165 145 160 163 160 173 182 187 195 184 176 185 192 201 203 193 196 208 202 185 171 176 183 179 177 182 193 213 226 234 246 237 212 204 207 211 210 208 208 209 210 209 212 220 228 235 236 226 222 227 223 219 216 209 205 211 216 217 220 221 205 195 203 208
215 200 194 191 180 188 324 326 177 216 216 208 212 227 236 240 196 118 151 187 173 165 139 145 169 168 161 173 180 184 195 192 184 192 203 215 213 195 195 207 209 203 188 178 183 187 187 189 192 195 192 194 207 203 182 178 183 186 184 184 190 195 193 188 188 198 210 219 218 202 197 203 205 208 212 212 214 220 227 231 227 213 199 201 210 213
209 200 195 199 200 211 203 147 159 194 167 157 194 219 230 242 243 224 202 192 196 211 173 159 169 166 163 176 182 182 191 191 186 195 211 219 216 206 207 210 210 213 203 188 188 193 196 196 193 188 183 185 189 185 172 165 170 175 174 173 178 179 177 176 178 184 190 189 183 182 184 185 187 195 203 209 218 223 222 213 199 197 207 214 215 217
211 195 198 211 215 210 174 148 166 219 177 109 92 96 166 227 231 226 222 207 217 235 190 170 174 170 168 182 188 182 183 185 188 197 205 209 208 206 207 205 203 206 202 194 191 191 195 198 194 189 191 191 184 178 171 163 167 177 177 176 177 176 174 176 180 184 188 187 188 195 196 192 189 189 193 199 206 208 205 197 193 201 211 214 214 219
199 176 191 204 187 157 154 146 151 193 187 134 109 100 95 118 178 198 213 219 222 211 184 179 178 172 173 186 193 190 185 185 193 199 198 199 202 200 197 197 196 194 194 194 191 186 189 195 194 192 198 199 188 173 163 160 168 176 179 183 186 180 175 176 182 188 191 193 200 205 202 198 195 192 193 197 198 198 200 201 202 205 211 213 215 217
204 195 202 190 160 137 131 133 136 149 155 129 111 109 102 107 141 143 153 198 217 205 189 183 178 174 175 183 194 200 195 191 193 195 194 197 200 196 193 194 193 191 192 194 192 187 186 189 191 193 200 205 195 177 166 167 174 177 181 187 190 186 181 179 183 189 191 195 198 200 199 197 195 194 193 195 197 196 198 203 207 210 214 217 218 219
191 215 210 178 156 147 137 138 141 140 134 105 90 101 104 114 151 157 162 177 203 216 206 193 181 174 174 181 195 199 194 193 193 192 194 199 200 197 194 194 194 193 195 196 194 191 190 191 195 200 205 208 202 190 181 183 185 183 189 194 188 182 182 180 181 185 186 189 189 188 192 194 194 195 193 192 194 195 197 204 208 210 212 216 221 224
197 217 203 156 167 182 173 156 148 127 108 86 99 120 132 143 161 174 174 175 179 199 210 196 176 168 172 185 200 196 183 185 191 192 195 198 200 200 198 199 201 198 197 198 198 198 200 202 206 210 212 212 209 202 195 194 191 185 190 197 188 175 171 171 174 178 182 186 187 185 186 185 186 188 189 189 191 194 199 204 206 209 213 218 223 227
195 192 181 161 162 169 159 134 96 74 117 125 131 139 145 149 167 173 158 159 167 182 198 187 167 164 170 178 193 192 180 185 191 190 193 197 200 203 203 205 208 205 202 202 202 204 206 206 207 210 214 217 217 213 206 201 202 200 194 193 190 188 190 190 188 186 185 185 184 185 186 186 185 185 186 189 193 194 198 202 206 212 215 219 223 226
188 190 178 160 147 149 154 148 145 147 137 133 134 137 138 139 154 159 142 134 145 173 186 174 161 159 161 162 179 191 192 201 204 198 196 197 202 211 213 209 207 207 208 208 208 209 209 206 203 205 211 215 215 215 212 205 205 211 208 198 195 199 203 205 204 202 197 190 184 183 185 186 186 188 191 194 196 197 199 201 205 211 215 219 223 227
183 196 177 157 144 156 148 123 127 142 140 142 147 145 142 140 147 159 146 131 131 142 155 157 152 149 148 146 152 162 172 199 212 208 210 213 211 216 224 221 211 203 197 196 198 200 203 206 205 203 207 207 199 198 207 205 199 204 209 203 194 189 189 190 196 201 201 197 193 192 193 193 190 191 196 199 200 201 202 201 203 208 213 219 225 229
180 194 186 166 156 165 143 119 125 146 148 166 168 162 163 157 152 165 160 146 148 156 160 171 167 159 160 157 149 146 148 165 186 190 196 207 209 206 216 230 223 201 182 179 191 192 191 193 191 184 185 185 174 171 186 196 195 198 204 199 185 175 175 176 180 188 191 193 197 200 203 202 199 201 206 208 209 208 204 200 200 204 209 216 222 227
185 192 200 187 168 168 153 127 128 171 157 173 177 175 180 177 168 169 163 156 172 178 176 195 207 200 199 202 206 207 194 183 189 184 179 186 193 196 206 217 218 213 218 248 253 228 200 189 180 168 168 169 161 157 164 173 181 190 201 206 202 200 202 204 208 212 212 210 214 217 214 212 214 218 219 217 216 214 213 210 208 207 209 213 218 222
191 183 188 178 169 178 163 125 111 138 160 175 182 180 184 185 177 174 173 180 189 188 187 197 206 208 209 211 218 224 222 212 209 201 189 186 186 192 202 208 210 217 233 235 213 204 216 227 241 247 219 194 197 197 188 183 186 190 198 211 216 216 218 222 225 228 231 228 223 220 218 217 220 222 220 216 215 216 219 220 219 216 213 212 215 222
168 158 143 136 143 167 158 128 115 133 157 170 178 180 182 178 174 182 192 183 178 179 181 188 200 212 219 224 227 226 225 223 216 206 199 192 183 182 191 197 201 204 201 191 171 161 177 205 229 238 229 212 215 225 227 222 217 214 215 220 223 220 221 227 232 236 242 243 238 232 228 223 221 222 222 224 226 228 231 237 239 237 233 228 224 225
126 118 120 122 121 136 141 131 122 128 152 168 175 178 181 179 180 191 189 172 165 168 171 180 198 213 220 229 236 239 239 230 205 187 188 189 189 191 189 186 188 183 175 179 180 170 166 173 186 197 205 207 211 221 227 224 221 221 221 224 226 227 228 233 237 238 239 240 241 243 243 241 238 238 239 242 246 247 250 253 251 247 250 251 245 239
107 107 120 123 125 134 133 124 121 140 160 169 172 176 183 190 194 188 177 163 162 172 173 176 190 206 219 231 242 252 250 216 162 150 159 165 175 185 186 190 196 187 178 182 187 183 182 185 191 197 205 209 211 216 223 226 224 222 223 226 229 232 235 238 240 242 242 242 241 241 242 243 244 245 245 244 243 247 253 255 251 250 255 258 255 251
99 117 136 135 138 153 143 121 127 168 168 168 171 175 182 191 194 188 180 168 166 176 181 182 187 197 211 228 248 272 280 230 183 172 166 168 179 190 196 208 216 208 197 198 202 202 201 205 211 215 218 221 223 223 225 229 228 227 227 230 232 237 241 243 244 245 246 246 245 244 243 244 244 246 247 244 240 244 251 253 251 255 258 256 253 252
83 105 132 148 149 159 149 129 128 140 152 163 170 173 181 184 180 184 188 180 172 175 184 190 189 189 197 215 239 252 250 247 245 239 234 232 235 238 232 222 221 220 217 217 219 217 215 217 220 223 225 229 232 234 236 239 241 241 240 238 239 241 243 244 245 246 247 247 247 246 246 247 248 250 252 253 251 253 255 253 252 255 255 253 252 251
73 70 67 143 133 122 117 117 121 125 127 146 162 168 178 179 169 175 188 185 174 171 179 188 190 187 191 204 219 229 240 250 256 261 264 264 264 265 257 244 237 233 231 231 233 233 234 233 234 236 238 239 241 242 243 245 247 248 248 248 248 247 247 247 247 247 248 248 249 249 249 251 252 253 255 258 259 259 259 255 252 251 249 248 250 251
76 59 56 119 129 125 121 121 130 141 139 155 172 168 170 171 167 173 188 189 181 175 178 186 188 187 191 202 218 237 252 259 264 268 270 269 270 267 258 251 248 249 252 255 257 258 260 262 263 263 261 259 257 255 254 253 251 251 251 251 250 250 250 250 250 249 249 249 249 250 250 251 253 255 256 258 260 260 260 258 255 252 249 248 249 250
86 70 73 92 111 141 144 141 152 157 143 147 167 173 176 180 179 184 195 199 198 196 196 200 206 212 221 226 237 250 256 257 259 261 259 256 254 251 250 251 252 255 262 269 276 280 281 279 278 276 272 271 269 267 265 263 260 258 256 255 255 255 254 254 254 253 253 252 251 252 252 252 252 253 254 256 257 257 257 258 257 257 256 255 254 254
78 69 67 72 105 141 149 153 168 170 158 158 170 178 187 194 199 205 208 213 222 228 233 242 252 261 264 262 260 260 260 260 258 257 256 253 248 247 250 253 257 262 269 276 281 282 281 279 277 275 274 274 274 272 272 270 268 266 264 262 260 260 258 258 258 258 258 257 257 257 257 257 257 257 257 257 257 257 257 258 258 260 261 261 261 260
82 106 70 74 133 147 146 147 161 171 175 181 189 197 206 213 223 229 232 238 246 251 257 264 271 275 275 273 269 263 260 261 260 258 259 259 257 258 261 265 273 280 284 285 284 281 280 280 279 277 276 275 275 274 273 273 273 272 270 268 266 265 264 263 263 262 263 263 262 263 263 264 264 264 264 263 263 262 261 260 260 261 262 263 263 263
331 307 329 317 152 144 132 124 136 165 180 181 186 202 217 222 228 234 239 245 249 252 255 257 259 260 262 263 262 254 248 252 258 260 263 265 268 269 270 275 285 290 290 290 287 284 283 283 282 283 284 283 280 278 275 273 272 270 270 270 270 269 268 268 267 267 268 268 268 269 270 270 271 272 272 271 270 269 268 266 265 264 264 264 264 263
Height
3083 3083 3081 3079 3079 3082 3085 3085 3086 3088 3090 3091 3091 3091 3091 3091 3090 3090 3091 3093 3096 3095 3092 3093 3093 3091 3091 3092 3094 3097 3098 3098 3099 3100 3102 3104 3104 3103 3103 3106 3109 3112 3114 3115 3117 3118 3119 3119 3119 3119 3119 3119 3120 3122 3122 3122 3122 3123 3123 3124 3124 3125 3127 3129 3130 3132 3133 3134 3135 3137 3138 3139 3141 3141 3142 3143 3143 3144 3145 3145 3145 3145 3145 3145 3146 3146
3081 3079 3076 3077 3080 3083 3084 3085 3086 3087 3088 3089 3090 3090 3089 3090 3089 3088 3089 3091 3094 3093 3088 3089 3090 3087 3088 3090 3091 3094 3096 3097 3097 3097 3099 3101 3101 3101 3103 3105 3108 3110 3111 3113 3115 3117 3117 3117 3117 3118 3118 3118 3119 3120 3121 3121 3121 3121 3122 3122 3123 3125 3127 3129 3131 3132 3133 3135 3136 3137 3138 3139 3141 3142 3142 3143 3144 3145 3145 3145 3145 3146 3146 3147 3147 3147
3078 3074 3074 3077 3080 3082 3083 3084 3084 3085 3087 3088 3089 3089 3088 3089 3088 3087 3087 3088 3091 3090 3084 3084 3085 3083 3085 3088 3089 3092 3094 3095 3095 3094 3094 3096 3096 3099 3102 3104 3106 3108 3110 3112 3114 3116 3116 3116 3116 3117 3117 3117 3118 3119 3120 3120 3120 3120 3121 3122 3123 3125 3127 3129 3131 3133 3134 3135 3137 3138 3139 3140 3141 3142 3142 3144 3145 3146 3146 3146 3146 3147 3147 3147 3146 3146
3076 3072 3073 3077 3079 3080 3081 3082 3083 3084 3085 3085 3087 3087 3086 3087 3088 3086 3084 3086 3087 3086 3081 3080 3080 3080 3083 3086 3088 3089 3090 3093 3094 3092 3092 3092 3094 3098 3101 3104 3106 3107 3109 3111 3113 3115 3115 3115 3116 3117 3117 3117 3118 3118 3119 3119 3119 3120 3121 3122 3123 3125 3127 3129 3131 3133 3135 3136 3137 3138 3140 3140 3141 3142 3143 3145 3146 3147 3147 3148 3148 3148 3147 3146 3146 3145
3074 3072 3073 3076 3077 3079 3079 3080 3081 3082 3082 3083 3084 3085 3085 3086 3088 3086 3084 3084 3083 3081 3078 3076 3077 3079 3080 3084 3086 3086 3088 3090 3091 3090 3090 3091 3094 3097 3100 3103 3105 3107 3109 3111 3112 3113 3114 3115 3115 3115 3115 3116 3117 3118 3118 3118 3119 3120 3121 3122 3124 3126 3128 3129 3132 3133 3135 3136 3137 3138 3140 3141 3141 3143 3144 3146 3147 3148 3148 3148 3148 3147 3147 3147 3146 3146
3072 3072 3073 3075 3076 3077 3078 3079 3079 3080 3081 3081 3082 3083 3084 3085 3085 3084 3083 3083 3081 3080 3078 3076 3078 3078 3079 3082 3084 3086 3088 3088 3088 3088 3088 3090 3093 3096 3099 3102 3104 3106 3108 3110 3111 3111 3112 3113 3113 3114 3114 3115 3116 3117 3117 3117 3118 3120 3121 3123 3124 3126 3128 3129 3131 3133 3135 3136 3138 3140 3141 3142 3142 3143 3145 3146 3147 3148 3148 3148 3147 3147 3147 3147 3146 3146
3070 3071 3073 3074 3075 3076 3077 3077 3078 3080 3080 3079 3079 3082 3083 3083 3083 3082 3082 3083 3081 3080 3079 3078 3078 3078 3080 3082 3083 3086 3087 3086 3086 3087 3088 3090 3093 3095 3099 3101 3103 3105 3107 3108 3109 3110 3111 3111 3111 3112 3113 3114 3115 3116 3116 3117 3118 3119 3121 3122 3124 3126 3127 3129 3131 3133 3135 3136 3138 3140 3141 3142 3143 3144 3145 3146 3146 3147 3147 3147 3147 3147 3147 3147 3146 3146
3068 3070 3071 3072 3074 3074 3075 3075 3076 3078 3078 3077 3078 3081 3082 3081 3081 3080 3081 3081 3080 3079 3078 3077 3077 3078 3080 3082 3082 3084 3085 3085 3086 3087 3089 3091 3093 3096 3098 3101 3103 3104 3106 3107 3108 3108 3109 3110 3110 3111 3111 3112 3114 3115 3116 3116 3118 3119 3120 3122 3124 3125 3127 3128 3131 3133 3134 3136 3138 3139 3140 3141 3142 3143 3144 3145 3145 3146 3146 3147 3147 3147 3147 3146 3146 3146
3068 3069 3070 3071 3072 3072 3073 3073 3074 3076 3076 3075 3077 3079 3080 3080 3079 3079 3079 3078 3079 3079 3077 3076 3076 3078 3080 3082 3082 3083 3083 3084 3085 3086 3088 3090 3092 3095 3097 3099 3101 3103 3104 3106 3107 3107 3108 3109 3110 3111 3111 3111 3113 3114 3115 3116 3117 3118 3120 3121 3123 3125 3126 3128 3130 3132 3134 3136 3138 3139 3140 3141 3141 3142 3143 3144 3144 3145 3145 3146 3146 3146 3146 3146 3146 3145
3067 3068 3069 3070 3070 3070 3071 3071 3072 3074 3074 3075 3076 3077 3078 3078 3078 3078 3078 3077 3078 3079 3077 3076 3076 3078 3080 3081 3082 3082 3082 3083 3085 3086 3088 3090 3091 3093 3095 3098 3100 3102 3103 3104 3105 3106 3107 3108 3109 3110 3110 3110 3112 3113 3114 3115 3116 3118 3119 3121 3123 3124 3126 3128 3130 3132 3134 3136 3138 3139 3140 3141 3142 3142 3143 3143 3144 3144 3145 3145 3145 3146 3146 3146 3146 3146
3065 3067 3068 3069 3068 3068 3070 3070 3071 3072 3073 3074 3075 3075 3076 3077 3077 3078 3077 3077 3078 3078 3077 3077 3078 3079 3081 3081 3081 3082 3082 3083 3085 3086 3088 3090 3091 3093 3095 3097 3099 3101 3102 3102 3103 3105 3105 3107 3108 3109 3109 3110 3111 3112 3113 3114 3115 3117 3119 3121 3122 3124 3126 3128 3131 3133 3135 3137 3138 3140 3141 3142 3143 3143 3143 3144 3144 3144 3145 3145 3145 3146 3146 3147 3147 3147
3064 3065 3066 3066 3066 3067 3069 3070 3070 3071 3072 3072 3073 3074 3075 3075 3075 3076 3076 3076 3077 3077 3076 3077 3078 3079 3080 3080 3080 3081 3081 3082 3084 3085 3086 3087 3089 3091 3094 3096 3098 3100 3100 3100 3102 3103 3104 3104 3106 3107 3108 3108 3109 3110 3111 3113 3115 3116 3118 3120 3122 3124 3126 3128 3130 3132 3134 3136 3138 3140 3141 3142 3143 3144 3144 3144 3145 3145 3145 3146 3146 3147 3147 3147 3147 3147
3062 3063 3063 3064 3065 3066 3067 3068 3069 3069 3070 3071 3071 3072 3073 3073 3074 3075 3075 3074 3075 3075 3075 3076 3077 3078 3078 3078 3079 3080 3080 3082 3083 3084 3085 3086 3088 3090 3093 3095 3096 3097 3098 3099 3101 3102 3103 3103 3105 3107 3107 3107 3108 3109 3111 3112 3114 3116 3118 3120 3122 3124 3126 3128 3130 3131 3133 3134 3137 3139 3140 3141 3142 3143 3144 3145 3145 3145 3146 3146 3147 3147 3147 3147 3146 3146
3061 3061 3061 3062 3063 3064 3065 3066 3067 3067 3068 3069 3069 3070 3071 3072 3074 3076 3075 3074 3074 3073 3074 3075 3075 3076 3077 3077 3077 3078 3080 3081 3083 3084 3087 3089 3090 3092 3093 3093 3094 3096 3097 3099 3100 3101 3102 3103 3104 3105 3106 3106 3107 3108 3110 3112 3113 3115 3117 3119 3121 3123 3125 3127 3129 3130 3131 3133 3135 3137 3139 3140 3141 3143 3144 3144 3145 3145 3146 3147 3147 3147 3147 3147 3146 3145
3061 3060 3059 3060 3061 3063 3064 3064 3066 3066 3067 3067 3068 3068 3068 3068 3070 3073 3073 3073 3073 3072 3072 3073 3074 3075 3076 3077 3077 3078 3079 3081 3082 3084 3087 3089 3090 3092 3092 3092 3093 3095 3097 3098 3099 3100 3101 3102 3103 3104 3105 3106 3107 3109 3110 3111 3113 3114 3116 3118 3120 3122 3124 3125 3127 3129 3130 3132 3134 3136 3137 3138 3140 3142 3143 3143 3144 3145 3146 3146 3146 3146 3146 3146 3146 3145
3060 3058 3058 3059 3060 3061 3062 3063 3064 3065 3065 3066 3066 3066 3066 3066 3067 3069 3070 3071 3071 3072 3073 3073 3075 3075 3076 3077 3078 3079 3080 3081 3083 3084 3085 3086 3088 3090 3090 3091 3093 3095 3096 3096 3097 3098 3099 3101 3102 3103 3104 3106 3108 3109 3110 3111 3113 3114 3116 3118 3120 3122 3123 3124 3126 3127 3129 3130 3132 3134 3136 3137 3139 3141 3142 3142 3143 3144 3144 3145 3145 3145 3145 3145 3145 3145
3058 3057 3057 3058 3059 3059 3060 3061 3062 3063 3063 3064 3065 3065 3064 3066 3067 3068 3069 3070 3071 3074 3075 3075 3075 3076 3076 3077 3078 3079 3080 3081 3083 3083 3084 3084 3086 3087 3089 3090 3092 3094 3096 3095 3095 3096 3098 3099 3100 3102 3104 3106 3108 3108 3109 3111 3113 3114 3116 3118 3120 3121 3122 3123 3125 3126 3127 3129 3131 3133 3135 3136 3138 3140 3141 3142 3142 3143 3143 3143 3144 3144 3145 3145 3145 3145
3057 3056 3056 3057 3057 3057 3058 3059 3060 3061 3062 3062 3063 3064 3064 3065 3066 3066 3068 3071 3074 3076 3076 3075 3076 3077 3078 3078 3079 3080 3081 3082 3082 3083 3085 3085 3086 3087 3088 3090 3092 3093 3094 3094 3093 3095 3096 3097 3099 3101 3103 3105 3106 3107 3108 3110 3112 3114 3116 3118 3119 3120 3121 3122 3123 3124 3125 3127 3129 3131 3133 3135 3137 3139 3140 3141 3142 3142 3142 3142 3143 3144 3144 3144 3144 3144
3056 3055 3054 3055 3057 3056 3055 3057 3058 3059 3060 3061 3063 3063 3063 3064 3064 3065 3067 3071 3075 3078 3077 3076 3076 3078 3079 3078 3079 3081 3082 3082 3082 3083 3084 3086 3086 3086 3087 3089 3090 3091 3091 3091 3092 3092 3093 3095 3097 3099 3101 3102 3103 3104 3106 3107 3109 3112 3115 3117 3118 3119 3120 3121 3121 3122 3123 3125 3128 3130 3132 3134 3135 3137 3139 3140 3141 3141 3142 3142 3143 3143 3144 3144 3144 3144
3055 3054 3053 3054 3056 3055 3054 3055 3056 3057 3058 3059 3062 3063 3062 3062 3063 3064 3066 3067 3070 3075 3077 3076 3077 3078 3078 3078 3078 3080 3081 3081 3081 3082 3083 3084 3084 3085 3085 3086 3087 3088 3089 3090 3090 3090 3090 3092 3094 3096 3098 3098 3099 3101 3103 3105 3107 3110 3113 3115 3117 3118 3118 3119 3119 3120 3121 3123 3125 3128 3131 3132 3134 3136 3138 3139 3140 3140 3141 3141 3142 3143 3144 3144 3144 3144
3053 3054 3053 3053 3054 3055 3054 3054 3055 3055 3056 3057 3058 3060 3060 3061 3062 3063 3065 3065 3066 3070 3073 3073 3075 3076 3077 3077 3077 3078 3077 3077 3079 3080 3081 3081 3082 3082 3083 3083 3083 3085 3087 3088 3088 3088 3088 3089 3092 3093 3094 3094 3095 3098 3101 3104 3106 3108 3111 3114 3115 3116 3116 3117 3117 3118 3119 3120 3122 3126 3130 3131 3133 3134 3136 3137 3138 3139 3140 3141 3142 3143 3143 3144 3144 3144
3052 3052 3052 3052 3054 3054 3053 3054 3055 3055 3055 3055 3056 3057 3058 3058 3060 3062 3064 3064 3064 3066 3067 3068 3071 3075 3075 3076 3076 3076 3076 3078 3079 3079 3079 3079 3080 3081 3081 3081 3083 3085 3085 3086 3087 3086 3086 3087 3089 3089 3089 3090 3093 3096 3100 3103 3104 3106 3109 3112 3113 3113 3114 3115 3116 3117 3119 3120 3123 3126 3128 3129 3130 3131 3133 3135 3135 3137 3139 3141 3141 3142 3142 3144 3144 3144
3051 3051 3051 3052 3054 3055 3054 3054 3054 3055 3055 3055 3055 3056 3057 3058 3059 3060 3061 3062 3063 3064 3065 3066 3069 3074 3075 3075 3076 3076 3077 3079 3079 3079 3080 3080 3080 3081 3081 3082 3084 3086 3086 3087 3087 3087 3086 3086 3087 3087 3087 3089 3092 3094 3098 3101 3103 3105 3106 3107 3108 3110 3112 3114 3116 3116 3117 3118 3121 3124 3126 3126 3127 3128 3130 3132 3133 3136 3138 3139 3139 3140 3141 3142 3143 3143
3050 3050 3050 3051 3053 3054 3055 3054 3053 3054 3055 3056 3056 3056 3057 3058 3059 3059 3060 3061 3062 3063 3064 3065 3069 3074 3075 3075 3076 3076 3077 3077 3077 3079 3081 3082 3081 3080 3081 3082 3083 3084 3085 3086 3087 3088 3089 3089 3089 3089 3089 3090 3091 3094 3097 3100 3102 3103 3103 3104 3106 3108 3110 3113 3114 3114 3113 3114 3118 3121 3122 3123 3124 3125 3127 3129 3132 3134 3135 3136 3137 3138 3138 3140 3141 3142
3048 3049 3049 3050 3052 3053 3054 3053 3052 3052 3054 3055 3056 3057 3057 3058 3058 3059 3059 3060 3061 3062 3062 3064 3068 3072 3073 3075 3076 3077 3077 3077 3078 3080 3081 3081 3081 3080 3080 3081 3083 3084 3086 3086 3086 3088 3090 3091 3091 3091 3090 3090 3091 3094 3097 3099 3100 3101 3102 3104 3105 3107 3108 3109 3110 3111 3111 3113 3116 3118 3118 3119 3120 3122 3124 3127 3131 3133 3133 3134 3136 3136 3137 3138 3139 3141
3046 3048 3048 3049 3050 3051 3052 3053 3051 3051 3052 3054 3055 3056 3057 3057 3057 3058 3058 3059 3059 3061 3061 3063 3066 3070 3072 3073 3075 3077 3077 3077 3079 3080 3081 3081 3080 3080 3080 3081 3082 3084 3086 3086 3087 3088 3089 3090 3091 3090 3090 3091 3092 3093 3096 3098 3100 3101 3102 3103 3104 3105 3106 3106 3107 3109 3110 3111 3113 3116 3117 3117 3118 3121 3123 3126 3129 3131 3132 3132 3133 3134 3135 3136 3137 3139
3044 3046 3047 3048 3049 3050 3051 3052 3051 3050 3051 3051 3052 3054 3056 3057 3057 3057 3058 3058 3058 3059 3061 3062 3064 3066 3070 3072 3073 3075 3076 3077 3079 3081 3082 3081 3080 3080 3080 3081 3082 3083 3084 3085 3086 3087 3089 3091 3091 3091 3091 3092 3092 3094 3095 3097 3099 3100 3102 3102 3102 3103 3105 3105 3106 3107 3107 3107 3110 3113 3114 3115 3117 3120 3122 3125 3127 3129 3130 3131 3131 3132 3133 3134 3136 3138
3043 3044 3045 3046 3048 3049 3050 3051 3051 3051 3051 3050 3050 3053 3055 3056 3057 3058 3058 3059 3059 3059 3060 3063 3063 3064 3068 3071 3073 3075 3076 3077 3079 3081 3081 3080 3080 3081 3081 3081 3081 3082 3084 3085 3085 3086 3088 3090 3091 3091 3091 3091 3091 3093 3094 3096 3097 3100 3101 3102 3102 3103 3104 3105 3105 3106 3106 3107 3109 3111 3112 3114 3116 3119 3121 3124 3126 3127 3129 3130 3130 3131 3132 3132 3134 3137
3042 3042 3043 3045 3047 3048 3049 3050 3051 3052 3051 3051 3051 3052 3054 3055 3056 3058 3059 3060 3060 3059 3060 3062 3063 3064 3067 3070 3072 3074 3075 3076 3078 3079 3079 3079 3079 3080 3081 3081 3081 3081 3083 3085 3086 3086 3088 3089 3090 3090 3090 3090 3090 3090 3092 3094 3096 3098 3101 3102 3102 3103 3104 3105 3105 3105 3106 3107 3109 3110 3112 3113 3115 3117 3119 3122 3124 3126 3127 3128 3128 3129 3131 3132 3134 3135
3042 3042 3043 3044 3046 3047 3048 3050 3052 3052 3051 3051 3052 3052 3053 3054 3055 3056 3058 3059 3060 3060 3060 3061 3063 3064 3066 3068 3070 3073 3075 3076 3077 3077 3077 3077 3078 3079 3079 3080 3081 3081 3082 3083 3085 3086 3087 3088 3089 3090 3090 3090 3090 3090 3091 3093 3095 3097 3099 3101 3102 3103 3104 3105 3105 3105 3106 3107 3109 3110 3112 3113 3115 3116 3118 3121 3123 3124 3125 3126 3127 3128 3130 3131 3133 3134
3042 3042 3043 3044 3046 3048 3048 3049 3052 3052 3050 3050 3051 3051 3053 3053 3053 3054 3056 3058 3060 3060 3060 3061 3062 3064 3066 3068 3070 3072 3073 3075 3076 3076 3076 3076 3077 3078 3079 3080 3080 3081 3082 3083 3084 3085 3086 3087 3088 3088 3089 3090 3090 3091 3092 3093 3094 3096 3097 3099 3100 3102 3103 3104 3105 3105 3106 3107 3108 3109 3111 3113 3114 3116 3118 3120 3121 3122 3123 3125 3126 3127 3128 3130 3131 3132
3041 3042 3043 3044 3046 3048 3049 3049 3052 3052 3050 3050 3050 3051 3052 3053 3052 3053 3056 3058 3059 3060 3060 3061 3062 3064 3066 3067 3069 3070 3071 3072 3074 3074 3075 3076 3077 3077 3078 3079 3080 3081 3081 3082 3083 3084 3085 3086 3087 3088 3089 3089 3090 3091 3093 3094 3095 3095 3096 3097 3098 3100 3102 3103 3104 3105 3105 3106 3107 3108 3110 3112 3113 3115 3116 3118 3119 3120 3122 3123 3124 3125 3126 3127 3128 3130
3041 3042 3043 3044 3046 3048 3049 3051 3052 3051 3050 3051 3051 3051 3052 3053 3053 3054 3055 3057 3059 3060 3060 3061 3062 3064 3065 3067 3068 3069 3070 3071 3072 3073 3074 3075 3076 3077 3078 3079 3080 3081 3082 3082 3082 3083 3085 3086 3086 3087 3088 3089 3090 3092 3093 3094 3095 3096 3096 3096 3097 3098 3100 3102 3103 3104 3104 3105 3106 3107 3109 3110 3112 3113 3114 3116 3117 3118 3119 3120 3121 3122 3123 3125 3126 3128
3041 3041 3042 3043 3045 3047 3049 3051 3051 3050 3052 3053 3053 3052 3052 3053 3054 3055 3055 3057 3059 3060 3061 3061 3062 3064 3066 3067 3069 3070 3071 3071 3071 3072 3073 3074 3076 3077 3078 3079 3080 3081 3081 3082 3082 3083 3084 3085 3086 3086 3087 3088 3090 3092 3093 3094 3094 3095 3095 3096 3096 3097 3098 3099 3101 3102 3103 3104 3105 3106 3107 3109 3110 3112 3113 3115 3116 3117 3117 3118 3119 3120 3121 3122 3124 3125
3041 3041 3041 3042 3044 3046 3048 3050 3051 3052 3053 3053 3052 3053 3053 3054 3055 3055 3056 3057 3059 3061 3062 3063 3063 3065 3066 3067 3069 3070 3070 3070 3071 3072 3073 3074 3076 3077 3077 3078 3079 3080 3081 3081 3082 3082 3083 3084 3084 3085 3086 3087 3088 3090 3092 3093 3094 3094 3095 3095 3095 3096 3096 3097 3099 3101 3102 3103 3104 3105 3106 3107 3108 3110 3112 3113 3114 3115 3115 3115 3116 3117 3119 3120 3121 3122
3040 3041 3041 3042 3043 3045 3047 3048 3050 3052 3053 3053 3053 3054 3054 3055 3056 3056 3056 3059 3061 3062 3063 3063 3064 3065 3066 3067 3068 3068 3068 3069 3070 3072 3073 3075 3077 3077 3077 3076 3077 3079 3079 3080 3080 3080 3081 3083 3084 3084 3085 3085 3086 3088 3090 3092 3093 3093 3093 3094 3095 3095 3096 3097 3099 3100 3102 3103 3104 3104 3105 3106 3107 3108 3109 3110 3111 3111 3111 3111 3113 3115 3117 3118 3119 3119
3041 3041 3041 3042 3043 3045 3046 3047 3050 3052 3054 3054 3054 3054 3054 3055 3056 3056 3057 3059 3061 3062 3064 3064 3064 3065 3066 3067 3068 3068 3068 3069 3070 3072 3073 3075 3077 3078 3078 3077 3078 3078 3078 3078 3078 3079 3079 3081 3082 3083 3084 3084 3083 3085 3088 3090 3092 3092 3092 3093 3094 3095 3096 3097 3098 3099 3101 3102 3103 3103 3104 3105 3105 3106 3107 3108 3109 3109 3109 3110 3111 3113 3114 3116 3117 3117
3040 3040 3041 3042 3043 3044 3045 3047 3050 3052 3053 3053 3054 3054 3055 3055 3056 3057 3057 3058 3060 3061 3063 3064 3064 3065 3066 3067 3068 3068 3069 3069 3070 3072 3073 3075 3076 3077 3078 3078 3079 3079 3079 3080 3080 3080 3080 3080 3080 3081 3083 3083 3083 3083 3085 3087 3089 3091 3092 3093 3094 3095 3096 3097 3099 3100 3100 3101 3102 3102 3103 3103 3104 3104 3105 3106 3107 3108 3109 3109 3110 3111 3112 3113 3114 3115
3039 3040 3040 3041 3043 3043 3044 3046 3049 3051 3051 3052 3053 3054 3055 3055 3056 3057 3058 3059 3059 3060 3061 3063 3064 3064 3065 3066 3067 3068 3069 3070 3071 3072 3073 3074 3075 3076 3077 3078 3079 3079 3080 3080 3081 3082 3083 3083 3083 3083 3084 3085 3085 3085 3085 3086 3088 3090 3092 3093 3094 3095 3096 3097 3099 3099 3100 3101 3102 3102 3102 3103 3103 3103 3104 3104 3105 3106 3106 3107 3108 3109 3109 3110 3111 3112
3039 3040 3040 3041 3042 3043 3043 3045 3048 3049 3050 3051 3052 3053 3054 3055 3056 3057 3057 3057 3058 3059 3061 3062 3062 3063 3064 3065 3066 3067 3068 3069 3071 3072 3073 3074 3074 3075 3076 3077 3078 3079 3080 3080 3080 3081 3082 3083 3084 3085 3086 3086 3087 3087 3088 3088 3089 3090 3092 3093 3093 3094 3095 3095 3096 3097 3098 3099 3100 3101 3101 3102 3103 3103 3103 3103 3103 3104 3105 3105 3106 3106 3107 3107 3108 3109
3040 3040 3041 3041 3042 3043 3044 3045 3047 3048 3049 3050 3051 3053 3054 3054 3055 3056 3055 3055 3056 3058 3060 3061 3062 3062 3063 3064 3066 3067 3068 3069 3071 3072 3073 3074 3074 3075 3075 3076 3078 3079 3079 3079 3080 3080 3081 3082 3082 3083 3084 3085 3086 3086 3087 3088 3089 3090 3091 3092 3093 3094 3094 3094 3095 3095 3095 3095 3096 3097 3098 3099 3100 3100 3101 3101 3101 3102 3102 3103 3104 3104 3104 3104 3104 3105
3040 3041 3041 3042 3042 3043 3044 3045 3047 3048 3049 3050 3051 3052 3053 3054 3054 3054 3054 3055 3056 3058 3059 3060 3061 3061 3062 3064 3065 3066 3068 3069 3071 3072 3073 3073 3074 3074 3075 3076 3077 3078 3078 3078 3079 3080 3081 3081 3082 3082 3083 3083 3084 3085 3086 3087 3088 3089 3089 3090 3091 3092 3093 3093 3094 3094 3094 3094 3094 3094 3094 3094 3095 3096 3097 3097 3097 3098 3098 3099 3099 3100 3100 3100 3100 3100
3041 3042 3043 3043 3043 3044 3045 3046 3047 3048 3048 3049 3050 3051 3052 3053 3053 3053 3053 3055 3057 3058 3059 3060 3061 3062 3063 3064 3066 3067 3068 3069 3070 3071 3072 3073 3073 3074 3075 3076 3076 3077 3077 3077 3078 3079 3080 3080 3081 3081 3082 3083 3083 3084 3084 3085 3085 3086 3087 3088 3089 3090 3090 3091 3091 3092 3092 3092 3092 3092 3091 3091 3092 3092 3093 3093 3093 3094 3094 3095 3095 3096 3096 3096 3097 3096
3042 3043 3043 3044 3044 3045 3045 3046 3048 3048 3048 3049 3049 3050 3051 3052 3053 3053 3054 3055 3057 3058 3059 3061 3062 3063 3065 3066 3067 3067 3068 3069 3070 3071 3072 3073 3073 3074 3075 3075 3076 3076 3077 3077 3077 3078 3078 3079 3080 3080 3081 3082 3082 3083 3083 3083 3083 3084 3086 3086 3087 3087 3088 3088 3089 3089 3089 3089 3089 3089 3089 3089 3089 3090 3090 3090 3091 3091 3091 3091 3092 3092 3092 3092 3092 3092
3043 3044 3044 3044 3045 3045 3046 3047 3048 3048 3048 3049 3050 3050 3051 3052 3053 3054 3055 3056 3057 3059 3060 3061 3063 3064 3066 3067 3067 3068 3068 3069 3070 3070 3071 3072 3073 3073 3074 3075 3075 3075 3076 3076 3076 3077 3078 3078 3079 3079 3080 3080 3081 3081 3081 3082 3082 3083 3084 3085 3085 3085 3085 3086 3086 3086 3086 3086 3086 3086 3086 3087 3087 3087 3087 3088 3088 3088 3088 3088 3088 3089 3088 3088 3087 3088
3044 3044 3045 3045 3046 3046 3047 3048 3049 3049 3050 3051 3051 3052 3053 3054 3055 3055 3056 3057 3058 3059 3060 3062 3063 3064 3065 3066 3067 3067 3068 3069 3069 3069 3070 3071 3071 3072 3073 3073 3074 3074 3074 3075 3075 3076 3076 3077 3077 3078 3078 3079 3079 3080 3080 3081 3081 3081 3081 3082 3082 3082 3082 3082 3082 3082 3082 3082 3083 3083 3083 3083 3084 3084 3084 3084 3084 3084 3084 3084 3084 3084 3084 3083 3083 3084
3045 3045 3046 3046 3046 3047 3049 3050 3051 3052 3052 3053 3053 3054 3054 3055 3056 3058 3058 3059 3059 3060 3061 3062 3063 3064 3065 3066 3066 3066 3067 3067 3067 3067 3068 3069 3070 3070 3071 3071 3071 3071 3071 3072 3072 3073 3074 3074 3075 3076 3076 3076 3076 3077 3077 3077 3078 3078 3078 3077 3077 3077 3077 3077 3077 3077 3077 3077 3078 3078 3078 3078 3079 3079 3079 3079 3079 3079 3079 3079 3079 3079 3079 3078 3078 3078
3046 3046 3047 3047 3047 3048 3049 3051 3052 3053 3054 3054 3055 3055 3056 3056 3057 3058 3059 3060 3060 3061 3062 3063 3063 3064 3065 3065 3065 3065 3065 3065 3065 3066 3066 3068 3069 3069 3069 3069 3069 3069 3069 3070 3070 3071 3071 3072 3072 3072 3072 3072 3072 3072 3072 3073 3073 3073 3073 3073 3073 3072 3072 3072 3072 3072 3072 3072 3073 3073 3073 3073 3073 3073 3073 3073 3073 3073 3073 3073 3073 3073 3073 3073 3073 3073
3047 3047 3048 3048 3049 3049 3050 3052 3053 3053 3054 3055 3056 3056 3056 3057 3058 3058 3059 3060 3060 3061 3062 3062 3062 3063 3063 3064 3064 3064 3064 3064 3064 3064 3065 3066 3067 3067 3067 3066 3066 3067 3068 3069 3068 3068 3068 3068 3068 3068 3068 3068 3068 3068 3068 3068 3068 3068 3068 3068 3068 3068 3068 3068 3068 3068 3068 3068 3068 3068 3068 3067 3067 3067 3067 3067 3067 3067 3067 3067 3067 3066 3066 3066 3067 3067
3048 3049 3049 3049 3049 3050 3051 3052 3053 3054 3055 3055 3056 3056 3057 3057 3058 3058 3059 3060 3060 3061 3061 3061 3061 3062 3062 3062 3063 3063 3063 3062 3062 3063 3063 3064 3064 3064 3064 3064 3064 3065 3065 3066 3065 3065 3064 3064 3064 3065 3065 3065 3065 3065 3065 3064 3064 3064 3064 3064 3064 3064 3064 3064 3064 3063 3063 3064 3063 3063 3063 3063 3063 3062 3062 3062 3062 3061 3061 3061 3061 3060 3059 3059 3060 3060
3049 3049 3050 3050 3050 3050 3051 3053 3054 3055 3055 3056 3056 3057 3058 3058 3059 3059 3059 3060 3060 3060 3061 3061 3061 3061 3061 3061 3061 3062 3062 3062 3061 3061 3061 3062 3062 3062 3061 3062 3062 3062 3062 3062 3061 3061 3061 3061 3061 3061 3062 3062 3062 3062 3062 3062 3061 3061 3061 3061 3061 3060 3060 3060 3060 3060 3060 3060 3060 3060 3059 3059 3058 3058 3058 3057 3056 3056 3056 3055 3055 3055 3054 3053 3053 3053